7 * 24
多渠道服务支持
ORBCOMM FM08 是一颗由 ORBCOMM 公司运营的低轨通信卫星,属于 ORBCOMM 二代卫星星座的一部分。该卫星主要用于提供全球范围内的物联网(IoT)和机器对机器(M2M)通信服务,支持远程数据传输、资产跟踪和监控应用。FM08 采用 L 波段通信,具备低功耗、广覆盖的特点,适用于物流、运输、能源等多个行业。该卫星于 2018 年发射,是构建 ORBCOMM 全球物联网网络的重要组成部分。
| 数据来源 | 国际轨道数据 |
| 星历时间: | 2025-10-29T19:41:35+0800 5小时前 查看轨道信息 |
| 半长轴: | 7115.784km |
| 偏心率: | 0.0007469 |
| 轨道倾角: | 45.013° |
| 近地点辐角 | 205.995° |
| 升交点赤经 | 82.943° |
| 平近点角 | 154.053° |
| 近地点: | 732.334km |
| 远地点: | 742.964km |
| 周期: | 99.562分钟 |
| 每日圈数: | 14.463342 |